{"data":{"norad_id":67811,"intl_designator":"2026-032Q","name":"STARLINK-36733","alt_names":[],"object_type":"PAYLOAD","status":"ACTIVE","operator":null,"country":"US","launch_date":"2026-02-15","launch_site_code":"AFWTR","launch_vehicle":null,"mission":null,"orbit_class":"UNKNOWN","rcs_meters":null,"size_class":null,"mass_kg":null,"dimensions":null,"purposes":["comms"],"wikipedia_slug":null,"has_3d_model":false,"image_url":null,"decayed_at":null,"tle_current":{"epoch":"2026-05-25T02:19:19.072128Z","epoch_age_seconds":70729,"freshness":"FRESH","line1":"1 67811U 26032Q   26145.09674852  .00015415  00000+0  47869-3 0  9997","line2":"2 67811  97.2847 333.2425 0000985 102.8204 257.3149 15.33454506 16670","mean_motion":15.33454506,"eccentricity":9.85e-5,"inclination_deg":97.2847,"raan_deg":333.2425,"arg_perigee_deg":102.8204,"mean_anomaly_deg":257.3149,"bstar":0.00047869,"rev_number":1667,"period_min":93.905622525198,"perigee_km":464.84079174497,"apogee_km":466.18899116759,"semimajor_km":6843.6518914563,"source":"CELESTRAK","updated_at":"2026-05-25T13:38:21.694812Z"}}}